Station PCNT2 - 8773701 - Port O'Connor, Matagorda Bay, TX Image indicating link to RSS feed of recent meteorological observations for station PCNT2


Conditions at PCNT2 as of
(11:18 am CDT)
1618 GMT on 04/20/2024:
     

Click on the graph icon in the table below to see a time series plot of the last five days of that observation.

5-day plot - Wind Direction Wind Direction (WDIR): E ( 100 deg true )
5-day plot - Wind Speed Wind Speed (WSPD): 18.1 kts
5-day plot - Wind Gust Wind Gust (GST): 21.0 kts
5-day plot - Atmospheric Pressure Atmospheric Pressure (PRES):29.95 in
5-day plot - Air Temperature Air Temperature (ATMP): 75.6 °F
5-day plot - Water Temperature Water Temperature (WTMP): 77.5 °F
5-day plot - Wind Speed at 10 Meters Wind Speed at 10 meters (WSPD10M): 19.4 kts
5-day plot - Wind Speed at 20 Meters Wind Speed at 20 meters (WSPD20M): 21.4 kts
5-day plot -  Wind Speed, Wind Gust and Atmospheric Pressure Combined plot of Wind Speed, Gust, and Air Pressure
Previous observations
TIME
(CDT)
5-day plot - Wind Direction
WDIR
 
5-day plot - Wind Speed
WSPD
kts
5-day plot - Wind Gust
GST
kts
5-day plot - Wave Height
WVHT
ft
5-day plot - Dominant Wave Period
DPD
sec
5-day plot - Average Wave Period
APD
sec
5-day plot - Mean Wave Direction
MWD
 
5-day plot - Atmospheric Pressure
PRES
in
5-day plot - Pressure Tendency
PTDY
in
5-day plot - Air Temperature
ATMP
°F
5-day plot - Water Temperature
WTMP
°F
5-day plot - Dew Point
DEWP
°F
5-day plot - Salinity
SAL
psu
5-day plot - Visibility
VIS
nmi
5-day plot - Tide (above MLLW)
TIDE
ft
2024-04-20 11:12 am E 17.1 22.0----29.96- 75.4 77.5----
2024-04-20 11:06 am E 18.1 21.0----29.96- 75.4 77.5----
2024-04-20 11:00 am E 15.9 19.0----29.97+0.00 75.4 77.5----
2024-04-20 10:54 am E 17.1 20.0----29.97- 75.4 77.4----
2024-04-20 10:48 amESE 15.9 20.0----29.97- 75.2 77.4----
2024-04-20 10:42 am E 17.1 21.0----29.97- 75.2 77.4----
2024-04-20 10:36 amESE 17.1 20.0----29.97- 75.2 77.4----
2024-04-20 10:30 am E 17.1 20.0----29.96- 75.0 77.4----
2024-04-20 10:24 am E 18.1 20.0----29.96- 75.2 77.4----
2024-04-20 10:18 am E 17.1 21.0----29.97- 75.0 77.4----
2024-04-20 10:12 am E 17.1 20.0----29.97- 75.0 77.4----
2024-04-20 10:06 am E 15.0 18.1----29.98- 75.0 77.4----
2024-04-20 10:00 am E 15.0 19.0----29.98+0.00 75.0 77.4----
2024-04-20 09:54 am E 14.0 17.1----29.97- 75.2 77.4----
2024-04-20 09:48 am E 14.0 17.1----29.97- 75.6 77.4----
2024-04-20 09:42 am E 15.0 18.1----29.97- 75.6 77.4----
2024-04-20 09:36 am E 15.0 17.1----29.96- 75.6 77.4----
2024-04-20 09:30 am E 14.0 17.1----29.96- 75.9 77.4----
2024-04-20 09:24 am E 15.0 17.1----29.96- 75.9 77.4----
2024-04-20 09:18 am E 14.0 17.1----29.96- 75.6 77.4----
2024-04-20 09:12 am E 14.0 15.9----29.96- 75.6 77.4----
2024-04-20 09:06 am E 14.0 17.1----29.96- 75.6 77.4----
2024-04-20 09:00 am E 15.0 18.1----29.96+0.00 75.4 77.4----
2024-04-20 08:54 am E 14.0 15.9----29.96- 75.4 77.4----
2024-04-20 08:48 am E 13.0 17.1----29.96-- 77.4----
2024-04-20 08:42 amENE 14.0 15.9----29.96-- 77.4----
2024-04-20 08:36 am E 12.0 14.0----29.96-- 77.4----
2024-04-20 08:30 am E 12.0 14.0----29.97- 75.0 77.4----
2024-04-20 08:24 amENE 13.0 14.0----29.96- 74.8 77.4----
2024-04-20 08:18 amENE 11.1 13.0----29.96- 74.8 77.4----
2024-04-20 08:12 amENE 11.1 13.0----29.97- 74.8 77.4----
2024-04-20 08:06 amENE 12.0 14.0----29.96- 74.8 77.4----
2024-04-20 08:00 amENE 12.0 13.0----29.96+0.00 74.8 77.4----
2024-04-20 07:54 amENE 11.1 12.0----29.97- 74.7 77.4----
2024-04-20 07:48 am E 11.1 12.0----29.97- 74.7 77.4----
2024-04-20 07:42 am E 9.9 12.0----29.97- 74.7 77.4----
2024-04-20 07:36 am E 9.9 12.0----29.97- 74.7 77.4----
2024-04-20 07:30 amENE 9.9 11.1----29.97- 74.5 77.4----
2024-04-20 07:24 amENE 9.9 9.9----29.97- 74.7 77.4----
2024-04-20 07:18 am E 8.9 9.9----29.97- 74.7 77.4----
2024-04-20 07:12 am E 8.9 9.9----29.97- 74.7 77.5----
2024-04-20 07:06 am E 8.9 9.9----29.97- 74.5 77.5----
2024-04-20 07:00 am E 8.0 8.9----29.97+0.04 74.7 77.5----
2024-04-20 06:54 am E 8.9 9.9----29.97- 74.7 77.5----
2024-04-20 06:48 amENE 8.9 9.9----29.96- 74.7 77.5----
2024-04-20 06:42 amENE 8.9 11.1----29.96- 74.7 77.5----
2024-04-20 06:36 amENE 9.9 9.9----29.96- 74.7 77.5----
2024-04-20 06:30 amENE 8.0 8.9----29.96- 74.8 77.5----
2024-04-20 06:24 amENE 8.0 8.0----29.96- 74.7 77.5----
2024-04-20 06:18 amENE 6.0 8.0----29.96- 74.7 77.5----
2024-04-20 06:12 amENE 7.0 8.0----29.96- 74.7 77.7----
2024-04-20 06:06 amENE 6.0 8.0----29.96- 74.7 77.7----
2024-04-20 06:00 amENE 7.0 8.9----29.96+0.00 74.8 77.7----
2024-04-20 05:54 amENE 8.0 8.9----29.96- 74.7 77.7----
2024-04-20 05:48 am NE 6.0 7.0----29.96- 74.7 77.7----
2024-04-20 05:42 am NE 6.0 7.0----29.96- 74.7 77.7----
2024-04-20 05:36 am NE 6.0 8.0----29.96- 74.7 77.7----
2024-04-20 05:30 am NE 7.0 8.0----29.96-- 77.7----
2024-04-20 05:24 am NE 6.0 7.0----29.96-- 77.7----
2024-04-20 05:18 am NE 7.0 8.9----29.96- 74.7 77.7----
2024-04-20 05:12 am NE 7.0 8.0----29.96- 74.5 77.7----
2024-04-20 05:06 am NE 6.0 8.0----29.96- 74.5 77.7----
2024-04-20 05:00 am NE 7.0 8.9----29.96+0.00- 77.7----
2024-04-20 04:54 am NE 6.0 8.0----29.96-- 77.7----
2024-04-20 04:48 amNNE 7.0 8.0----29.96- 74.5 77.7----
2024-04-20 04:42 amNNE 7.0 8.0----29.95- 74.3 77.7----
2024-04-20 04:36 amNNE 6.0 7.0----29.96- 74.3 77.7----
2024-04-20 04:30 amNNE 7.0 8.0----29.95- 74.3 77.7----
2024-04-20 04:24 amNNE 7.0 7.0----29.95- 74.3 77.7----
2024-04-20 04:18 amNNE 7.0 8.0----29.95- 74.3 77.7----
2024-04-20 04:12 am NE 6.0 8.9----29.94- 74.3 77.7----
2024-04-20 04:06 am NE 8.0 8.9----29.94- 74.3 77.9----
2024-04-20 04:00 amENE 8.0 8.9----29.93-0.03 74.3 77.9----
2024-04-20 03:54 amENE 7.0 8.0----29.93- 74.3 77.9----
2024-04-20 03:48 amENE 7.0 8.0----29.93- 74.1 77.9----
2024-04-20 03:42 amENE 7.0 7.0----29.94- 74.1 77.9----
2024-04-20 03:36 amENE 6.0 7.0----29.94- 74.1 77.9----
2024-04-20 03:30 amENE 6.0 8.0----29.95-- 77.9----
2024-04-20 03:24 amENE 6.0 7.0----29.95-- 77.9----
2024-04-20 03:18 amENE 5.1 6.0----29.95- 74.1 77.9----
2024-04-20 03:12 am E 5.1 6.0----29.96- 74.1 77.9----
2024-04-20 03:06 am E 5.1 6.0----29.96- 74.1 77.9----
2024-04-20 03:00 am-------29.96-0.01- 77.9----
2024-04-20 02:54 am-------29.96-- 77.9----
2024-04-20 02:48 am E 6.0 7.0----29.96- 73.9 77.9----
2024-04-20 02:42 am E 5.1 7.0----29.96- 73.9 77.9----
2024-04-20 02:36 am E 6.0 8.0----29.96- 73.9 77.9----
2024-04-20 02:30 am E 7.0 8.9----29.96- 73.9 77.9----
2024-04-20 02:24 am E 7.0 8.9----29.96- 74.1 77.9----
2024-04-20 02:18 amESE 8.9 11.1----29.96- 73.9 77.9----
2024-04-20 02:12 am E 8.9 9.9----29.96- 73.9 77.9----
2024-04-20 02:06 am E 8.0 11.1----29.96- 74.1 78.1----
2024-04-20 02:00 am E 8.9 11.1----29.96+0.00 74.1 78.1----
2024-04-20 01:54 am E 9.9 11.1----29.96- 73.9 78.1----
2024-04-20 01:48 amESE 8.9 12.0----29.97- 74.1 78.1----
2024-04-20 01:42 amESE 8.9 11.1----29.97- 73.9 78.1----
2024-04-20 01:36 am E 9.9 12.0----29.97- 74.1 78.1----
2024-04-20 01:30 amESE 9.9 12.0----29.97- 73.9 78.1----
2024-04-20 01:24 amESE 11.1 13.0----29.96- 73.9 78.1----
2024-04-20 01:18 amESE 9.9 14.0----29.97- 74.1 78.1----
2024-04-20 01:12 amESE 13.0 15.0----29.96- 73.9 77.9----
2024-04-20 01:06 am E 11.1 12.0----29.97- 74.1 77.9----
2024-04-20 01:00 am E 11.1 12.0----29.97+0.01 73.9 77.9----
2024-04-20 12:54 am E 9.9 13.0----29.97- 74.1 77.7----
2024-04-20 12:48 am E 12.0 13.0----29.97- 74.1 77.7----
2024-04-20 12:42 amESE 12.0 14.0----29.97- 74.1 77.4----
2024-04-20 12:36 am E 12.0 14.0----29.97- 74.3 77.2----
2024-04-20 12:30 am E 11.1 13.0----29.97- 74.1 77.2----
2024-04-20 12:24 am E 12.0 15.0----29.97- 74.1 77.2----
2024-04-20 12:18 am E 14.0 15.9----29.96- 73.9 77.4----
2024-04-20 12:12 am E 14.0 17.1----29.97- 74.1 77.4----
2024-04-20 12:06 am E 14.0 18.1----29.97- 74.1 77.5----
2024-04-20 12:00 am E 17.1 19.0----29.97+0.04 73.8 77.5----
2024-04-19 11:54 pm E 15.0 19.0----29.97- 73.9 77.7----
2024-04-19 11:48 pm E 15.0 18.1----29.97- 73.9 77.9----
2024-04-19 11:42 pm E 15.0 19.0----29.97- 73.9 78.1----
2024-04-19 11:36 pm E 13.0 19.0----29.97- 73.9 78.1----
2024-04-19 11:30 pm E 15.9 19.0----29.97- 73.9 78.1----
2024-04-19 11:24 pm E 15.0 18.1----29.97- 73.9 78.1----
2024-04-19 11:18 pm E 15.9 18.1----29.97- 73.9 78.1----
2024-04-19 11:12 pm E 17.1 19.0----29.97- 73.8 78.1----
2024-04-19 11:06 pm E 18.1 21.0----29.97- 73.9 78.1----
2024-04-19 11:00 pm E 15.0 18.1----29.97+0.06 74.1 78.1----
2024-04-19 10:54 pm E 14.0 18.1----29.97- 74.1 78.1----
2024-04-19 10:48 pm E 14.0 18.1----29.97- 73.9 78.1----
2024-04-19 10:42 pm E 15.0 18.1----29.96- 73.9 78.1----
2024-04-19 10:36 pm E 15.9 19.0----29.96- 73.9 78.1----
2024-04-19 10:30 pm E 15.0 18.1----29.96- 74.1 78.1----
2024-04-19 10:24 pm E 15.9 19.0----29.96- 74.1 78.1----
2024-04-19 10:18 pm E 14.0 18.1----29.96- 74.1 78.1----
2024-04-19 10:12 pmENE 15.9 18.1----29.96- 73.9 78.1----
2024-04-19 10:06 pm E 17.1 19.0----29.96- 73.9 78.1----
2024-04-19 10:00 pm E 17.1 19.0----29.95+0.03 73.8 78.1----
2024-04-19 09:54 pm E 15.9 18.1----29.95- 73.9 78.1----
2024-04-19 09:48 pm E 15.9 19.0----29.95- 73.9 78.1----
2024-04-19 09:42 pm E 17.1 19.0----29.94- 73.9 78.3----
2024-04-19 09:36 pm E 17.1 22.0----29.94- 73.9 78.3----
2024-04-19 09:30 pmENE 15.9 18.1----29.94- 73.9 78.3----
2024-04-19 09:24 pm E 15.9 19.0----29.94- 73.9 78.3----
2024-04-19 09:18 pmENE 15.9 18.1----29.93- 73.9 78.3----
2024-04-19 09:12 pm E 15.0 18.1----29.93- 74.1 78.3----
2024-04-19 09:06 pm E 15.9 19.0----29.93- 74.1 78.3----
2024-04-19 09:00 pm E 15.0 18.1----29.93+0.00 74.1 78.3----
2024-04-19 08:54 pm E 15.0 17.1----29.93- 73.9 78.3----
2024-04-19 08:48 pm E 14.0 17.1----29.93- 74.1 78.3----
2024-04-19 08:42 pm E 15.0 17.1----29.93- 74.1 78.3----
2024-04-19 08:36 pm E 15.0 18.1----29.93- 74.1 78.3----
2024-04-19 08:30 pm E 15.0 18.1----29.92- 74.1 78.3----
2024-04-19 08:24 pm E 17.1 19.0----29.92- 74.1 78.3----
2024-04-19 08:18 pm E 15.9 18.1----29.92- 74.1 78.4----
2024-04-19 08:12 pm E 15.9 18.1----29.91- 74.3 78.4----
2024-04-19 08:06 pmENE 15.0 18.1----29.91- 74.5 78.4----
2024-04-19 08:00 pm E 15.0 18.1----29.91-0.02 74.5 78.4----
2024-04-19 07:54 pm E 15.0 18.1----29.91- 74.5 78.4----
2024-04-19 07:48 pm E 14.0 17.1----29.91- 74.7 78.4----
2024-04-19 07:42 pm E 15.0 17.1----29.91- 74.7 78.4----
2024-04-19 07:36 pm E 15.9 17.1----29.91- 74.8 78.4----
2024-04-19 07:30 pm E 14.0 15.9----29.91- 75.0 78.4----
2024-04-19 07:24 pm E 14.0 15.9----29.92- 75.2 78.4----
2024-04-19 07:18 pm E 13.0 15.0----29.92- 75.4 78.4----
2024-04-19 07:12 pm E 12.0 14.0----29.92- 75.6 78.6----
2024-04-19 07:06 pm E 12.0 15.0----29.92- 75.7 78.6----
2024-04-19 07:00 pm E 14.0 15.0----29.92-0.01 75.7 78.6----
2024-04-19 06:54 pm E 13.0 15.9----29.92- 75.9 78.6----
2024-04-19 06:48 pm E 13.0 15.0----29.92- 76.1 78.6----
2024-04-19 06:42 pm E 12.0 14.0----29.93- 76.5 78.6----
2024-04-19 06:36 pm E 12.0 13.0----29.93- 76.5 78.6----
2024-04-19 06:30 pm E 11.1 12.0----29.93- 76.8 78.6----
2024-04-19 06:24 pm E 11.1 12.0----29.93- 76.8 78.6----
2024-04-19 06:18 pm E 11.1 13.0----29.93- 76.8 78.6----
2024-04-19 06:12 pmENE 11.1 13.0----29.93- 76.8 78.6----
2024-04-19 06:06 pmENE 11.1 12.0----29.93- 76.8 78.6----
2024-04-19 06:00 pmENE 9.9 12.0----29.93-0.02 76.8 78.6----
2024-04-19 05:54 pmENE 9.9 13.0----29.93- 76.8 78.6----
2024-04-19 05:48 pm E 12.0 13.0----29.93- 76.8 78.6----
2024-04-19 05:42 pm E 11.1 12.0----29.93- 76.8 78.6----
2024-04-19 05:36 pm E 11.1 12.0----29.93- 76.8 78.6----
2024-04-19 05:30 pm E 12.0 13.0----29.93- 76.6 78.6----
2024-04-19 05:24 pm E 12.0 14.0----29.93- 76.6 78.6----
2024-04-19 05:18 pm E 13.0 14.0----29.93- 76.8 78.6----
2024-04-19 05:12 pm E 13.0 14.0----29.93- 76.8 78.6----
2024-04-19 05:06 pm E 12.0 14.0----29.93- 76.6 78.6----
2024-04-19 05:00 pm E 12.0 14.0----29.93-0.04 76.8 78.6----
2024-04-19 04:54 pm E 13.0 14.0----29.93- 76.8 78.8----
2024-04-19 04:48 pm E 13.0 15.0----29.93- 76.8 79.0----
2024-04-19 04:42 pm E 13.0 15.0----29.93- 76.6 79.0----
2024-04-19 04:36 pm E 12.0 15.0----29.93- 76.8 79.0----
2024-04-19 04:30 pm E 12.0 15.0----29.93- 76.5 79.2----
2024-04-19 04:24 pm E 13.0 14.0----29.93- 76.5 79.3----
2024-04-19 04:18 pm E 12.0 14.0----29.93- 76.6 79.3----
2024-04-19 04:12 pm E 12.0 13.0----29.94- 76.8 79.3----
2024-04-19 04:06 pm E 11.1 13.0----29.94- 76.8 79.3----
2024-04-19 04:00 pm E 13.0 15.0----29.94-0.05 76.6 79.2----
2024-04-19 03:54 pm E 12.0 14.0----29.94- 77.0 79.2----
2024-04-19 03:48 pm E 13.0 15.0----29.94- 77.0 79.0----
2024-04-19 03:42 pm E 12.0 15.9----29.94- 77.0 79.0----
2024-04-19 03:36 pmENE 12.0 14.0----29.93- 77.0 79.0----
2024-04-19 03:30 pmENE 11.1 14.0----29.94- 77.2 78.8----
2024-04-19 03:24 pm E 12.0 14.0----29.94- 77.2 78.8----
2024-04-19 03:18 pm E 12.0 14.0----29.94- 77.4 78.8----
2024-04-19 03:12 pm E 13.0 14.0----29.94- 77.2 78.8----
2024-04-19 03:06 pm E 12.0 13.0----29.95- 77.2 78.8----
2024-04-19 03:00 pm E 11.1 13.0----29.95-0.04 77.4 78.8----
2024-04-19 02:54 pm E 12.0 14.0----29.95- 77.4 79.0----
2024-04-19 02:48 pm E 12.0 15.0----29.96- 77.2 79.2----
2024-04-19 02:42 pm E 13.0 14.0----29.96- 77.0 79.2----
2024-04-19 02:36 pm E 11.1 14.0----29.96- 77.2 79.0----
2024-04-19 02:30 pm E 12.0 14.0----29.96- 76.8 79.0----
2024-04-19 02:24 pm E 12.0 14.0----29.96- 76.6 78.8----
2024-04-19 02:18 pm E 12.0 13.0----29.97- 76.6 78.8----
2024-04-19 02:12 pm E 11.1 13.0----29.97- 76.8 78.8----
2024-04-19 02:06 pm E 11.1 12.0----29.97- 77.0 78.8----
2024-04-19 02:00 pmENE 8.9 11.1----29.97-0.02 77.2 78.6----
2024-04-19 01:54 pm E 9.9 12.0----29.97- 76.8 78.6----
2024-04-19 01:48 pm E 11.1 12.0----29.97- 76.6 78.6----
2024-04-19 01:42 pm E 9.9 11.1----29.98- 76.6 78.6----
2024-04-19 01:36 pm E 9.9 11.1----29.98- 76.8 78.6----
2024-04-19 01:30 pm E 9.9 11.1----29.98- 77.2 78.4----
2024-04-19 01:24 pm E 8.9 11.1----29.98- 77.5 78.4----
2024-04-19 01:18 pm E 9.9 11.1----29.98- 77.5 78.4----
2024-04-19 01:12 pm E 8.9 9.9----29.98- 77.5 78.3----
2024-04-19 01:06 pm E 9.9 11.1----29.99- 77.9 78.3----
2024-04-19 01:00 pm E 8.0 9.9----29.99+0.00 78.3 78.3----
2024-04-19 12:54 pm E 8.0 8.9----29.99- 78.6 78.3----
2024-04-19 12:48 pm E 8.0 8.9----29.99- 78.6 78.1----
2024-04-19 12:42 pmENE 8.0 9.9----29.99- 78.3 78.1----
2024-04-19 12:36 pmENE 8.9 9.9----29.99- 77.9 77.9----
2024-04-19 12:30 pmENE 8.9 9.9----29.99- 77.9 77.9----
2024-04-19 12:24 pmENE 8.9 11.1----29.99- 78.1 77.7----
2024-04-19 12:18 pmENE 8.9 11.1----29.99- 78.1 77.7----
2024-04-19 12:12 pmENE 8.9 11.1----29.99- 78.1 77.5----
2024-04-19 12:06 pmENE 8.9 11.1----29.99- 78.1 77.5----
2024-04-19 12:00 pmENE 8.9 9.9----29.99+0.04 78.1 77.5----
2024-04-19 11:54 amENE 8.0 9.9----30.00- 77.9 77.4----
2024-04-19 11:48 amENE 8.9 9.9----30.00- 77.9 77.4----
2024-04-19 11:42 amENE 8.0 8.9----29.99- 77.2 77.4----
2024-04-19 11:36 am NE 7.0 8.9----29.99- 76.8 77.2----
2024-04-19 11:30 am NE 7.0 8.0----30.00- 76.6 77.2----
2024-04-19 11:24 am NE 8.0 11.1----30.00- 76.8 77.2----
2024-04-19 11:18 amENE 8.9 9.9----29.99- 77.0 77.2----
2024-04-19 11:12 amENE 8.0 9.9----29.99- 77.0 77.2----
2024-04-19 11:06 amENE 8.0 8.9----30.00- 76.8 77.2----
2024-04-19 11:00 amENE 8.0 9.9----30.00+0.06 76.8 77.0----
2024-04-19 10:54 am E 8.0 8.9----30.00- 76.6 77.0----